This is the latest recevied weather packets stored in our database for station/object DK4MDA-13. If no packets are shown the sender has not sent any weather packets the latest 10 day(s).
| Time | Temp. | Humidity | Pressure | Rain* | Wind** | Luminosity | Snow |
|---|---|---|---|---|---|---|---|
| 1777807033 | 26.67° C | 33% | 1012.3 hPa | 0 mm | - | - | - |
| 1777806733 | 27.22° C | 33% | 1012.3 hPa | 0 mm | - | - | - |
| 1777806435 | 26.67° C | 31% | 1012.2 hPa | 0 mm | - | - | - |
| 1777806133 | 26.67° C | 30% | 1012.3 hPa | 0 mm | - | - | - |
| 1777805833 | 26.67° C | 31% | 1012.2 hPa | 0 mm | - | - | - |
| 1777805533 | 26.67° C | 30% | 1012.3 hPa | 0 mm | - | - | - |
| 1777805233 | 27.22° C | 30% | 1012.2 hPa | 0 mm | - | - | - |
| 1777804933 | 26.67° C | 31% | 1012.2 hPa | 0 mm | - | - | - |
| 1777804635 | 27.22° C | 29% | 1012.2 hPa | 0 mm | - | - | - |
| 1777804333 | 27.78° C | 29% | 1012.2 hPa | 0 mm | - | - | - |
| 1777804033 | 27.78° C | 30% | 1012.1 hPa | 0 mm | - | - | - |
| 1777803733 | 27.22° C | 31% | 1012.2 hPa | 0 mm | - | - | - |
| 1777803435 | 27.22° C | 34% | 1012.2 hPa | 0 mm | - | - | - |
| 1777802833 | 27.22° C | 33% | 1012.1 hPa | 0 mm | - | - | - |
| 1777802533 | 26.67° C | 34% | 1012.3 hPa | 0 mm | - | - | - |
| 1777801933 | 26.67° C | 35% | 1012.3 hPa | 0 mm | - | - | - |
| 1777800733 | 26.67° C | 39% | 1012.3 hPa | 0 mm | - | - | - |
| 1777800433 | 26.67° C | 41% | 1012.5 hPa | 0 mm | - | - | - |
| 1777800133 | 26.11° C | 40% | 1012.5 hPa | 0 mm | - | - | - |
| 1777799832 | 26.11° C | 41% | 1012.5 hPa | 0 mm | - | - | - |
| 1777799532 | 26.11° C | 44% | 1012.4 hPa | 0 mm | - | - | - |
| 1777799232 | 26.11° C | 42% | 1012.5 hPa | 0 mm | - | - | - |
| 1777798932 | 26.11° C | 43% | 1012.5 hPa | 0 mm | - | - | - |
| 1777798632 | 25.56° C | 43% | 1012.7 hPa | 0 mm | - | - | - |
| 1777798332 | 25.56° C | 42% | 1012.6 hPa | 0 mm | - | - | - |
* Rain latest hour (hover to see other rain measurements)
** Current wind speed in m/s (hover to see current wind gust speed)